TimeEDT,TemperatureF,Dew PointF,Humidity,Sea Level PressureIn,VisibilityMPH,Wind Direction,Wind SpeedMPH,Gust SpeedMPH,PrecipitationIn,Events,Conditions,WindDirDegrees,DateUTC
12:52 AM,44.1,35.1,71,30.21,10.0,SSW,3.5,-,N/A,,Scattered Clouds,210,2013-03-30 04:52:00
1:52 AM,44.1,30.9,60,30.21,10.0,South,3.5,-,N/A,,Scattered Clouds,190,2013-03-30 05:52:00
2:52 AM,41.0,34.0,76,30.20,10.0,SSW,5.8,-,N/A,,Scattered Clouds,200,2013-03-30 06:52:00
3:52 AM,42.1,30.0,62,30.20,10.0,SSW,3.5,-,N/A,,Scattered Clouds,210,2013-03-30 07:52:00
4:52 AM,42.1,30.9,65,30.20,10.0,Calm,Calm,-,N/A,,Overcast,0,2013-03-30 08:52:00
5:52 AM,41.0,30.9,67,30.20,10.0,Calm,Calm,-,N/A,,Overcast,0,2013-03-30 09:52:00
6:52 AM,42.1,35.1,76,30.21,10.0,Calm,Calm,-,N/A,,Overcast,0,2013-03-30 10:52:00
7:52 AM,43.0,35.1,74,30.23,10.0,Calm,Calm,-,N/A,,Overcast,0,2013-03-30 11:52:00
8:52 AM,48.0,28.0,46,30.24,10.0,North,5.8,-,N/A,,Mostly Cloudy,350,2013-03-30 12:52:00
9:52 AM,50.0,30.0,46,30.24,10.0,ENE,3.5,-,N/A,,Scattered Clouds,60,2013-03-30 13:52:00
10:52 AM,54.0,28.9,38,30.23,10.0,Calm,Calm,-,N/A,,Partly Cloudy,0,2013-03-30 14:52:00
11:52 AM,55.9,26.1,32,30.21,10.0,East,3.5,-,N/A,,Mostly Cloudy,80,2013-03-30 15:52:00
12:52 PM,57.9,21.9,25,30.19,10.0,Calm,Calm,-,N/A,,Scattered Clouds,0,2013-03-30 16:52:00
1:52 PM,59.0,23.0,25,30.18,10.0,Variable,5.8,-,N/A,,Scattered Clouds,0,2013-03-30 17:52:00
2:52 PM,60.1,23.0,24,30.15,10.0,WNW,4.6,-,N/A,,Partly Cloudy,300,2013-03-30 18:52:00
3:52 PM,60.1,21.9,23,30.14,10.0,North,5.8,-,N/A,,Partly Cloudy,350,2013-03-30 19:52:00
4:52 PM,60.1,19.9,21,30.13,10.0,NW,9.2,18.4,N/A,,Partly Cloudy,320,2013-03-30 20:52:00
5:52 PM,60.1,19.0,20,30.13,10.0,WNW,8.1,-,N/A,,Partly Cloudy,300,2013-03-30 21:52:00
6:52 PM,57.9,19.0,22,30.13,10.0,NW,4.6,-,N/A,,Scattered Clouds,310,2013-03-30 22:52:00
7:52 PM,55.0,21.9,28,30.13,10.0,Calm,Calm,-,N/A,,Scattered Clouds,0,2013-03-30 23:52:00
8:52 PM,54.0,27.0,35,30.14,10.0,East,3.5,-,N/A,,Mostly Cloudy,90,2013-03-31 00:52:00
9:52 PM,50.0,28.0,43,30.15,10.0,SSE,5.8,-,N/A,,Mostly Cloudy,150,2013-03-31 01:52:00
10:52 PM,48.9,28.9,46,30.15,10.0,SSE,8.1,-,N/A,,Scattered Clouds,160,2013-03-31 02:52:00
11:52 PM,46.9,32.0,56,30.14,10.0,South,6.9,-,N/A,,Scattered Clouds,190,2013-03-31 03:52:00